Flag for Ireland Weather past 2 weeks in Dublin, Ireland

Now
55 °F

Broken clouds.


Feels Like: 54 °F
Forecast: 48 / 60 °F
Wind: 6 mph from Northwest

Location: Dublin Airport

Current Time: Aug 31, 2015 at 10:04:57 AM

Latest Report: Aug 31, 2015 at 9:30 AM


Visibility: N/A

Pressure: 30.07 "Hg

Humidity: 94%

Dew point: 54 °F

Location of DublinLocation

Historic Weather in Dublin — Graph

°F

Dublin temperature yesterday

Maximum temperature yesterday: 63 °F (at 12:00 PM)
Minimum temperature yesterday: 46 °F (at 5:00 AM)
Average temperature yesterday: 56 °F

Past Weeks' High & Low Weather Summary

 TemperatureHumidityPressure
High73 °F (Aug 18, 4:30 PM)100% (Aug 16, 11:30 PM)30.09 "Hg (Aug 16, 11:30 PM)
Low39 °F (Aug 25, 5:00 AM)46% (Aug 21, 2:00 PM)29.30 "Hg (Aug 26, 5:00 AM)
Average58 °F81%29.80 "Hg
* Reported Aug 16 9:00 AM — Aug 31 9:00 AM, Dublin, Weather by CustomWeather, © 2015

Note: Actual official high and low records may vary slightly from our data, if they occured in-between our weather recording intervals... More about our weather records

Advertising

Dublin weather history for previous 24 hours

 ConditionsComfort  
Time TempWeatherWind HumidityBarometerVisibility
9:00 AM
Mon, Aug 31
54 °FBroken clouds.6 mph94%30.07 "HgN/A
8:30 AM54 °FPartly sunny.3 mph94%30.07 "HgN/A
8:00 AM52 °FPartly sunny.5 mph100%30.07 "HgN/A
7:30 AM52 °FPassing clouds.5 mph94%30.07 "HgN/A
7:00 AM50 °FPassing clouds.5 mph100%30.07 "HgN/A
6:30 AM50 °FPassing clouds.3 mph100%30.07 "HgN/A
6:00 AM50 °FPassing clouds.3 mph100%30.07 "HgN/A
5:30 AM50 °FPassing clouds.5 mph100%30.07 "HgN/A
5:00 AM50 °FPassing clouds.6 mph100%30.07 "HgN/A
4:30 AM50 °FPassing clouds.6 mph94%30.07 "HgN/A
4:00 AM48 °FPassing clouds.7 mph100%30.07 "HgN/A
3:30 AM48 °FPassing clouds.7 mph100%30.07 "HgN/A
3:00 AM48 °FPassing clouds.6 mph100%30.09 "HgN/A
2:30 AM48 °FPartly cloudy.3 mph94%30.09 "HgN/A
2:00 AM48 °FPassing clouds.3 mph94%30.07 "HgN/A
1:30 AM48 °FPassing clouds.6 mph94%30.09 "HgN/A
1:00 AM46 °FPassing clouds.2 mph100%30.09 "HgN/A
12:30 AM46 °FPassing clouds.2 mph93%30.09 "HgN/A
12:00 AM46 °FPassing clouds.3 mph93%30.09 "HgN/A
10:30 PM
Sun, Aug 30
46 °FPassing clouds.3 mph100%30.09 "HgN/A
10:00 PM48 °FPassing clouds.3 mph87%30.09 "HgN/A
9:30 PM50 °FPartly cloudy.3 mph88%30.09 "HgN/A
9:00 PM54 °FPartly sunny.3 mph77%30.09 "HgN/A
8:30 PM57 °FPartly sunny.5 mph72%30.09 "HgN/A
8:00 PM57 °FPartly sunny.6 mph72%30.09 "HgN/A
7:30 PM59 °FPartly sunny.6 mph68%30.09 "HgN/A
7:00 PM59 °FPartly sunny.7 mph68%30.09 "HgN/A
6:30 PM59 °FBroken clouds.9 mph63%30.09 "HgN/A
6:00 PM61 °FBroken clouds.9 mph63%30.09 "HgN/A
5:30 PM59 °FPartly sunny.9 mph68%30.09 "HgN/A
5:00 PM61 °FPartly sunny.10 mph63%30.09 "HgN/A
4:30 PM63 °FPartly sunny.8 mph64%30.09 "HgN/A
4:00 PM63 °FPartly sunny.7 mph52%30.09 "HgN/A
3:30 PM63 °FPartly sunny.6 mph64%30.09 "HgN/A
3:00 PM63 °FPartly sunny.7 mph56%30.09 "HgN/A
2:30 PM63 °FPartly sunny.3 mph59%30.09 "HgN/A
2:00 PM63 °FPartly sunny.6 mph59%30.09 "HgN/A
1:30 PM61 °FPartly sunny.6 mph59%30.09 "HgN/A
1:00 PM61 °FPartly sunny.6 mph59%30.09 "HgN/A
12:30 PM63 °FScattered clouds.6 mph52%30.09 "HgN/A
12:00 PM63 °FScattered clouds.7 mph56%30.09 "HgN/A
11:30 AM61 °FPartly sunny.6 mph59%30.09 "HgN/A
11:00 AM59 °FPartly sunny.7 mph77%30.09 "HgN/A
10:30 AM59 °FPartly sunny.6 mph72%30.09 "HgN/A
10:00 AM57 °FPartly sunny.7 mph77%30.09 "HgN/A
Weather by CustomWeather, © 2015

See weather overviewHow to use our weather pages